THOR ABLESTAR DEB, 172

Orbit data source: Space-Track

THOR ABLESTAR DEB, 172 is space debris in LEO originally from a launch on Thu, 29 Jun 1961 UTC launched from the Air Force Eastern Test Range (AFETR). Debris objects in space refer to the collection of defunct objects orbiting the Earth. Examples of debris include non-operational satellites, rocket bodies, and fragments generated from explosions, collisions, or faulty payload assembly.

Loading next visibility...
Identifier
172, 1961-015AY
Orbit
LEO
Last TLE update
18 hours ago
Origin
Manufacturer
Unknown
Mission
Spacecraft
Bus & Motor
Unknown
Mass
Unknown
Launch date (UTC)
1961-06-29 (64 years ago)
Launch vehicle
Unknown
Launch site
Air Force Eastern Test Range (AFETR)
Object type
Payload
Rocket body
Debris
Shape & HBR
Unknown
Radar Cross Section
Small (<0.1 m²)

Expand to show TLE details & history

TLE from 18 hours ago
0 THOR ABLESTAR DEB
1 00172U 61015AY  25181.57833342  .00000171  00000-0  30663-3 0  9995
2 00172  67.0671 253.0389 0138284 312.4426  46.5010 13.58967228157333
Epoch: 2025-06-30T13:52Z
TLE epoch observation values (Epoch: 2025-06-30T13:52:48.007Z)
Latitude
-0.00002°
Longitude
125.95273°
Altitude
971.657 km
Speed
7.401 km/s
True Right ascension
16h 52m 09s
True Declination
0° 00' 00"
Sunlit
Object was in full shadow at epoch
Visualization orbit readout
Latitude
17.84894°
Longitude
-63.59713°
Altitude
1,130.626 km
Speed
7.245 km/s
Apparent Right ascension
05h 43m 28s
Apparent Declination
-9° 28' 07"
Sunlit
Object is in daylight
Visualization observer readout
Local Sidereal Time
19:58:29
Azimuth
53.873° ENE
Elevation
-47.27°
Doppler factor
1
Orbital elements
Apogee altitude
1,140.387 km
Perigee altitude
935.285 km
Semi-major axis
7,415.973 km
Eccentricity
0.01383
Inclination
67.0671°
RAAN
253.0389°
Arg. of periapsis
312.4426°
True anomaly
Unknown
Mean anomaly
46.501°
Eccentric anomaly
Unknown
Mean motion
3.39853 °/min
Orbital period
105.93 mins
BSTAR
0.00030663
Loading maneuver chart data...
Loading SW <> Apogee altitude chart data...

THOR ABLESTAR DEB Visibility forecast

Observer location: undefined°, undefined°

Span
Click to sort rows by Start time (UTC) header in descending order
Start Az.
Max El. time (UTC)
Max El. Az.
Max El.
End time (UTC)
End Az.
7 mins2025-07-01 13:22:23.231Z6.652° NNE2025-07-01 13:25:23.231Z33.728° NE15.803°2025-07-01 13:29:23.231Z69.579° E
12 mins2025-07-01 15:10:23.231Z338.982° N2025-07-01 15:16:23.231Z70.085° E42.14°2025-07-01 15:22:23.231Z138.612° SSE
9 mins2025-07-01 17:00:23.231Z298.306° NW2025-07-01 17:04:23.231Z257.992° W22.633°2025-07-01 17:09:23.231Z208.852° SW
8 mins2025-07-02 04:52:23.231Z140.329° SSE2025-07-02 04:55:23.231Z105.825° ESE21.468°2025-07-02 05:00:23.231Z55.943° ENE
11 mins2025-07-02 06:39:23.231Z227.046° WSW2025-07-02 06:44:23.231Z323.347° NNW40.909°2025-07-02 06:50:23.231Z22.457° NNE
|